www.pogodaiklimat.ru
Время
(UTC), дата
22:53 29.12
23:53 29.12
00:53 29.12
01:53 29.12
02:53 29.12
03:53 29.12
04:53 29.12
05:53 30.12
06:53 30.12
07:53 30.12
08:53 30.12
09:53 30.12
10:53 30.12
11:53 30.12
12:53 30.12
13:53 30.12
14:53 30.12
15:53 30.12
16:53 30.12
17:53 30.12
18:53 30.12
19:53 30.12
20:53 30.12
21:53 30.12
22:53 30.12
23:53 30.12
00:53 30.12
01:53 30.12
02:53 30.12
03:53 30.12
04:53 30.12
05:53 31.12
06:53 31.12
07:53 31.12
08:53 31.12
09:53 31.12
10:53 31.12
11:53 31.12
12:53 31.12
13:53 31.12
14:53 31.12
15:53 31.12
16:53 31.12
17:53 31.12
18:53 31.12
19:53 31.12
20:53 31.12
21:53 31.12
Ветер
(напр.,м/с)
Видим. Явления Облачность Т
(С)
Тd
(С)
f
(%)
Тe
(С)
Тes
(С)
Комфортность P
(гПа)
Po
(гПа)
Тmin
(С)
Tmax
(С)
R
(мм)
R24
(мм)
S
(см)
З 8
{11}
16 км 10/10 1440 м +6.1 -1.7 57 +1 +1 1009.5 984.9 +5.6 +8.3
З 6 16 км 10/10 1380 м +6.1 -1.1 60 +2 +2 1010.2 985.6
З 9
{13}
16 км 8/8 1440 м +5.6 -2.2 57 -0 -0 1010.5 985.9
З 7
{12}
16 км ясно +4.4 -2.2 62 -1 -1 1011.0 986.3
З 7
{10}
16 км 8/8 1140 м +5.0 -1.7 62 -1 -1 1011.5 986.6
З 6 16 км ясно +3.9 -1.7 67 -2 -2 1011.8 987.3
З 6 16 км ясно +3.9 -1.7 67 -2 -2 1012.2 987.6 +3.9 +6.1
З 6 16 км ясно +3.3 -1.7 70 -2 -2 1012.7 987.9
З 6 16 км ясно +2.8 -2.2 70 -3 -3 1013.1 988.2
З 6 16 км ясно +2.8 -2.2 70 -3 -3 1013.6 988.9
З 4 16 км ясно +2.8 -2.8 67 -2 -2 1013.5 988.6
З 7 16 км ясно +2.2 -3.3 67 -4 -4 1013.5 988.6
З 6 16 км ясно +2.2 -3.3 67 -4 -4 1014.2 989.6 +2.2 +3.9
З 6 16 км ясно +1.7 -3.9 66 -4 -4 1015.1 990.2
З 5 16 км ясно +1.7 -3.9 66 -4 -4 1015.7 990.9
З 6
{11}
16 км ясно +3.3 -3.9 59 -2 -2 1016.6 991.6
З 8
{12}
16 км ясно +5.0 -3.9 53 -1 -1 1017.4 992.5
З 8
{13}
16 км ясно +6.7 -3.9 47 +2 +2 1017.7 992.9
З 9
{13}
16 км ясно +7.2 -3.9 45 +2 +2 1017.4 992.5 +1.1 +7.2
З 9
{13}
16 км 2/2 1350 м +7.8 -3.9 43 +3 +3 1016.8 991.9
З 8
{12}
16 км 2/2 1500 м +8.9 -3.9 40 +5 +5 1016.6 991.9
З 9
{14}
16 км 2/2 1500 м +8.9 -4.4 39 +4 +5 1016.8 991.9
З 9
{14}
16 км 2/2 1500 м +8.3 -4.4 40 +4 +4 1017.1 992.2
З 8 16 км ясно +7.8 -4.4 42 +3 +4 1017.7 992.9
З 6 16 км ясно +6.1 -4.4 47 +2 +2 1018.3 993.5 +6.1 +9.4
З 4 16 км ясно +5.0 -4.4 51 +1 +1 1019.0 993.9
СЗ 4 16 км ясно +3.9 -4.4 55 -1 -1 1019.6 994.5
СЗ 4 16 км ясно +3.3 -3.9 59 -1 -1 1020.1 995.2
СЗ 5 16 км ясно +3.3 -4.4 57 -2 -2 1020.3 995.5
З 4 16 км ясно +2.8 -5.0 56 -1 -1 1020.6 995.5
З 5 16 км ясно +2.2 -5.0 59 -3 -3 1020.8 995.8 +2.2 +6.1
З 4 16 км ясно +1.1 -5.0 64 -4 -4 1020.7 995.8
З 3 16 км ясно +0.6 -5.6 63 -4 -4 1020.3 995.5
З 2 16 км ясно 0.0 -6.1 63 -4 -4 1021.1 996.2
З 3 16 км ясно -0.6 -6.1 66 -6 -6 1021.2 996.2
З 3 16 км ясно -1.1 -6.1 69 -6 -6 1021.3 996.2
З 3 16 км ясно -1.1 -6.1 69 -6 -6 1021.8 996.8 -1.7 +2.2
З 3 16 км ясно -1.7 -6.1 72 -7 -7 1022.2 996.8
ЮЗ 2 16 км 2/0 7500 м
[верхняя]
0.0 -5.6 66 -4 -4 1022.7 997.5
СЗ 2 16 км 2/0 7500 м
[верхняя]
+1.1 -5.0 64 -3 -2 1022.8 997.5
З 4 16 км 2/0 7500 м
[верхняя]
+3.9 -5.0 52 0 +1 1023.3 998.2
З 4 16 км 5/0 7500 м
[верхняя]
+6.1 -5.0 45 +3 +4 1023.0 998.2
З 4 16 км 5/0 7500 м
[верхняя]
+7.2 -5.6 40 +4 +7 1021.8 996.8 -2.2 +7.2
З 6
{9}
16 км 5/0 7500 м
[верхняя]
+9.4 -5.6 34 +6 +8 1020.8 995.8
З 6 16 км 5/0 7500 м
[верхняя]
+10.6 -6.1 30 +8 +9 1019.9 994.9
З 5 16 км 5/0 7500 м
[верхняя]
+11.1 -7.2 27 +9 +10 1019.6 994.5
З 4 16 км 5/0 7500 м
[верхняя]
+10.6 -7.2 28 +8 +10 1019.2 994.2
З 2 16 км 2/0 7500 м
[верхняя]
+8.3 -6.7 34 +7 +8 1019.0 994.2
Местоположение метеостанции Tulsa International Airport: широта 36.1975 долгота -95.8864 высота над уровнем моря 206 м.
В архиве по умолчанию представлена погода в Тулсе за последние 1-2 суток. Обновление информации о фактической погоде в базе происходит ежечасно! Архивные данные за месяц целиком и за предыдущие месяцы Вы можете получить, выбрав интересующий диапазон дат из раскрывающегося списка и нажав кнопку "Ввод!".
Внимание! Архив погоды МЕТАР в базе сайта по станциям, не включенным в климатический монитор, хранится не более 60 дней. Нет смысла пытаться выбрать более раннюю дату.
*Определитесь, кто Вы:
Внимание! Время в таблицах - всемирное. Для получения местного времени необходимо прибавить поправку, которая равна ч.
Смотрите также архив погоды в соседних городах и на ближайших метеорологических станциях:
Партнеры нашего сайта:      
Пояснения к столбцам:
  • Ветер - указаны скорость ветра в м/с - средняя за 10 мин, порывы в срок и между сроками (в фигурных скобках) и направление, откуда дует ветер: С - северный,
  • СВ - северо-восточный, В - восточный, ЮВ - юго-восточный, Ю - южный, ЮЗ - юго-западный, З - западный, СЗ - северо-западный.
  • Видимость - горизонтальная дальность видимости в метрах или километрах. При видимости от 1 до 10 км при отсутствии осадков обычно наблюдается дымка, при ухудшении видимости до 1 км и менее - туман. В сухую погоду видимость может ухудшаться дымом, пылью или мглою.
  • Явления - указаны атмосферные явления, наблюдавшиеся в срок или в последний час перед сроком; фигурными скобками обозначены явления, наблюдавшиеся между сроками (за 1-3 часа до срока); квадратными скобками обозначены град или гололедные отложения с указанием их диаметра в мм.
  • Облачность - указаны через наклонную черту общая и нижняя облачность в баллах и высота нижней границы облаков в метрах; квадратными скобками обозначены формы облаков: Ci - перистые, Cs - перисто-слоистые, Cc - перисто-кучевые, Ac - высококучевые, As - высокослоистые, Sc - слоисто-кучевые, Ns - слоисто-дождевые, Cu - кучевые, Cb - кучево-дождевые. Подробнее классификацию облаков см. в Атласе облаков (PDF).
  • T - Температура воздуха - температура, измеренная на высоте 2 м над землей.
  • Td - Температура точки росы - температура, при понижении до которой содержащийся в воздухе водяной пар достигнет насыщения.
  • f - Относительная влажность воздуха - влажноcть воздуха, измеренная на высоте 2 м над землей.
  • Te - Эффективная температура - температура, которую ощущает одетый по сезону человек в тени. Характеристика душности погоды. При расчете учитывается влияние влажности воздуха и скорости ветра на теплоощущения человека.
  • Tes - Эффективная температура на солнце - температура, которую ощущает человек, с поправкой на солнечный нагрев. Характеристика знойности погоды. Зависит от высоты солнца над горизонтом, облачности и скорости ветра. Ночью, в пасмурную погоду, а также при ветре 12 м/с и более поправка равна нулю.
  • P - Атмосферное давление - приведенное к уровню моря атмосферное давление.
  • Po - Атмосферное давление - измеренное на уровне метеостанции атмосферное давление.
  • Tmin - Минимальная температура - минимум температуры воздуха на высоте 2 м над землей.
  • Tmax - Максимальная температура - максимум температуры воздуха на высоте 2 м над землей.
  • R - Количество осадков - Количество выпавших осадков за период времени, мм. При наведении курсора мыши на число - период времени, за который выпало указанное количество осадков.
  • R24 - Количество осадков - Количество выпавших осадков за 24 часа, мм.
  • S - Снежный покров - Высота снежного покрова, см. При наведении курсора мыши на число - состояние снежного покрова и степень покрытия местности в баллах.